[[{"header":{"parameterUnit":"m.s-1","parameterCategory":1,"la1":30.2991,"la2":30.254,"lo1":-89.0895,"lo2":-89.0444,"dx":0.0017,"dy":0.0017,"nx":28,"ny":28,"refTime":"2022-11-26T09:00:00:Z","depth":0,"parameterNumber":2,"parameterNumberName":"U-component_of_WINDS"},"data":[0,0,0,0,0,0,0,0,0,0,0,0,0,0,0,0,0,0,0,0,0,0,0,0,0,0,0,0,0,0,0,0,0,0,0,0,0,0,0,0,0,0,0,0,0,0,0,0,0,0,0,0,0,0,0,0,0,0,1.9928,1.993,0,2.0085,2.0087,2.0089,2.0111,2.011,2.0108,2.0107,2.0271,2.0276,2.0282,0,0,0,0,0,0,0,0,0,0,0,0,0,1.9651,1.9656,1.9928,1.993,1.9932,2.0085,2.0087,2.0089,2.0111,2.011,2.0108,2.0106,2.0269,2.0276,2.0283,0,0,0,0,0,0,0,0,0,0,0,0,0,1.9786,1.9657,1.9928,1.9961,1.9966,2.0085,2.0087,2.009,2.0112,2.011,2.0107,2.0105,2.0267,2.0275,2.0284,2.0381,0,0,2.031,2.0314,0,0,0,0,0,0,0,0,1.9778,1.9796,1.9955,1.9959,1.9965,2.0076,2.005,2.0188,2.0112,2.0056,2.0107,2.0104,2.0208,2.0221,2.0256,2.0388,2.0395,2.0311,2.0316,2.032,2.0322,0,0,0,0,0,0,0,1.9769,1.9789,1.999,1.9957,1.9963,1.997,1.9987,2.0076,2.0143,2.0061,2.0063,2.0081,2.0211,2.0247,2.026,2.0398,2.031,2.0318,2.0323,2.0327,2.0619,2.0621,0,0,0,0,0,0,1.9753,1.9781,1.9985,1.9995,1.9864,1.9977,1.9995,2.0043,2.0142,2.0155,2.0083,2.0082,2.0234,2.025,2.0266,2.0386,2.032,2.0328,2.0333,2.0616,2.0619,2.0622,0,0,0,0,0,0,1.9747,1.9771,1.9979,1.9889,1.9916,1.9984,2.0037,2.0047,2.0084,2.0158,2.0171,2.0108,2.0233,2.0254,2.0352,2.0392,2.0331,2.0339,2.0613,2.0617,2.0621,2.0626,0,0,0,0,0,0,1.9739,1.9768,1.9805,1.989,1.9921,2.0061,2.0039,2.0052,2.0098,2.0098,2.0185,2.0198,2.0233,2.0339,2.036,2.0402,2.0346,2.061,2.0615,2.0619,2.0623,2.063,2.0636,0,0,0,0,0,1.9729,1.9801,1.9807,1.9831,1.9968,2.0064,2.0081,2.0119,2.0101,2.0139,2.0187,2.0195,2.0384,2.0349,2.0373,2.0418,2.0607,2.0613,2.0619,2.062,2.0628,2.0636,0,0,0,0,0,0,1.972,1.9813,1.982,1.9921,1.9984,2.0067,2.0116,2.0127,2.0197,2.0194,2.024,2.0259,2.0355,2.0397,2.0356,2.0518,2.0494,2.0505,2.0486,2.0495,2.0502,2.0489,2.0353,0,0,0,0,0,1.973,1.9799,1.9877,1.9959,1.999,2.0047,2.0091,2.0115,2.0182,2.0209,2.0264,2.033,2.0405,2.0453,2.0525,2.063,2.0649,2.0673,2.0679,2.0684,2.0693,2.0751,2.0763,2.0641,2.0641,2.0641,0,0,1.9751,1.981,1.9851,1.9959,2.001,2.0081,2.007,2.0146,2.0199,2.0221,2.0316,2.0359,2.0436,2.0538,2.0585,2.0576,2.0731,2.0692,2.0695,2.0701,2.0758,2.077,2.078,2.0645,2.0645,2.0644,0,0,1.9825,1.9877,1.9951,2.0003,2.0081,2.0119,2.0137,2.0218,2.0247,2.0344,2.0361,2.0427,2.0554,2.0608,2.0652,2.0749,2.0758,2.0772,2.0805,2.0861,2.0871,2.088,2.0913,2.0925,2.078,2.078,2.078,0,1.9841,1.9949,1.9988,2.0063,2.011,2.0133,2.0208,2.0257,2.0355,2.0388,2.0376,2.0536,2.0589,2.0704,2.0727,2.0763,2.0785,2.0761,2.0866,2.0875,2.0884,2.0917,2.0929,2.0781,2.0781,2.0781,2.0781,0,1.9965,2.0039,2.009,2.0183,2.0236,2.0311,2.0363,2.0412,2.0432,2.0472,2.057,2.0635,2.0721,2.0751,2.0772,2.0869,2.086,2.0857,2.0834,2.0896,2.0927,2.094,2.0783,2.0782,2.0782,2.0782,0,0,2.0036,2.015,2.0168,2.0211,2.0299,2.0358,2.0435,2.0519,2.056,2.0628,2.0694,2.0801,2.0799,2.0849,2.0876,2.0926,2.0997,2.0916,2.0919,2.0928,2.1108,2.1109,2.1123,2.1005,2.1008,2.101,2.1101,0,2.012,2.0256,2.0294,2.0409,2.0479,2.0502,2.0569,2.0632,2.0671,2.0737,2.0782,2.0857,2.0848,2.0878,2.0929,2.0978,2.1034,2.0972,2.1067,2.107,2.1045,2.114,2.1141,2.1224,2.1114,2.1116,2.1118,0,2.0235,2.0304,2.0426,2.0506,2.0536,2.0596,2.0676,2.0738,2.081,2.0835,2.0892,2.0915,2.0997,2.0971,2.1085,2.1042,2.1084,2.1114,2.1118,2.1127,2.1096,2.115,2.1251,2.1263,2.1138,2.1136,2.1135,0,2.0273,2.0397,2.0486,2.0522,2.0618,2.0659,2.0701,2.0771,2.0818,2.0889,2.0921,2.1,2.1044,2.1106,2.115,2.1127,2.1261,2.1238,2.1284,2.1283,2.131,2.1307,2.1418,2.1339,2.1339,2.1339,2.1338,0,2.0361,2.0435,2.0504,2.0559,2.0642,2.0687,2.0769,2.0812,2.0874,2.0938,2.0964,2.1024,2.108,2.1147,2.1183,2.1272,2.1292,2.1315,2.1324,2.1312,2.1309,2.1339,2.1333,2.1342,2.1341,2.1341,2.134,0,2.0417,2.0467,2.0565,2.0648,2.0671,2.0728,2.08,2.0855,2.0896,2.0977,2.0999,2.1064,2.1145,2.1196,2.1299,2.1323,2.1421,2.1428,2.1396,2.1399,2.1442,2.1437,2.1575,2.1595,2.1504,2.1504,2.1505,0,2.0469,2.0526,2.0616,2.066,2.0702,2.0774,2.0823,2.0869,2.0919,2.1006,2.105,2.1133,2.1201,2.133,2.1388,2.1467,2.1476,2.1519,2.1488,2.1474,2.1475,2.147,2.1476,2.1523,2.1524,2.1524,2.1525,0,2.0557,2.0578,2.0647,2.0725,2.0783,2.0847,2.0911,2.0946,2.1004,2.1059,2.1142,2.1195,2.1301,2.1383,2.1467,2.1512,2.1528,2.1534,2.1549,2.1537,2.1515,2.1526,2.1408,2.1531,2.153,2.153,2.1529,2.1529,2.0612,2.0663,2.0734,2.081,2.0863,2.0923,2.0978,2.1026,2.1096,2.1184,2.1208,2.1295,2.1367,2.1482,2.1529,2.1598,2.1592,2.1614,2.1619,2.1623,2.1623,2.1506,2.1614,2.1614,2.1614,2.1614,2.1614,0,2.0699,2.0746,2.0816,2.0904,2.0964,2.0974,2.1046,2.1096,2.1171,2.1236,2.1303,2.1399,2.1479,2.1543,2.1625,2.1668,2.1678,2.1688,2.1685,2.1695,2.1624,2.1602,2.1679,2.1679,2.1679,2.1679,2.1679,2.1679,2.0751,2.0839,2.0869,2.0984,2.1032,2.1116,2.1156,2.1211,2.1263,2.1368,2.1434,2.1475,2.154,2.1628,2.1702,2.1719,2.1748,2.1756,2.1774,2.1707,2.17,2.1693,2.1672,2.1763,2.1763,2.1839,2.184,2.184]},{"header":{"parameterUnit":"m.s-1","parameterCategory":1,"la1":30.2991,"la2":30.254,"lo1":-89.0895,"lo2":-89.0444,"dx":0.0017,"dy":0.0017,"nx":28,"ny":28,"refTime":"2022-11-26T09:00:00:Z","depth":0,"parameterNumber":3,"parameterNumberName":"V-component_of_WINDS"},"data":[0,0,0,0,0,0,0,0,0,0,0,0,0,0,0,0,0,0,0,0,0,0,0,0,0,0,0,0,0,0,0,0,0,0,0,0,0,0,0,0,0,0,0,0,0,0,0,0,0,0,0,0,0,0,0,0,0,0,1.8585,1.8586,0,1.8707,1.8708,1.871,1.8756,1.8756,1.8755,1.8755,1.8877,1.8881,1.8884,0,0,0,0,0,0,0,0,0,0,0,0,0,1.8388,1.8391,1.8584,1.8586,1.8587,1.8707,1.8708,1.871,1.8756,1.8756,1.8755,1.8755,1.8876,1.888,1.8884,0,0,0,0,0,0,0,0,0,0,0,0,0,1.8488,1.8392,1.8584,1.8625,1.863,1.8706,1.8708,1.871,1.8756,1.8756,1.8755,1.8755,1.8875,1.888,1.8885,1.8929,0,0,1.8901,1.8904,0,0,0,0,0,0,0,0,1.8482,1.8495,1.8617,1.8622,1.8628,1.8716,1.8684,1.8784,1.8756,1.8708,1.8755,1.8755,1.8824,1.8833,1.8857,1.8935,1.894,1.8902,1.8905,1.8908,1.8909,0,0,0,0,0,0,0,1.8475,1.849,1.8633,1.8619,1.8626,1.8636,1.865,1.8703,1.8767,1.8712,1.8716,1.873,1.8826,1.8852,1.886,1.8942,1.8902,1.8907,1.891,1.8912,1.9061,1.9061,0,0,0,0,0,0,1.8462,1.8484,1.8629,1.8636,1.8552,1.864,1.8655,1.8688,1.8767,1.8778,1.873,1.8732,1.8843,1.8854,1.8865,1.8921,1.8907,1.8913,1.8916,1.906,1.9061,1.9062,0,0,0,0,0,0,1.8457,1.8474,1.8624,1.8561,1.8581,1.8644,1.868,1.8691,1.8716,1.8781,1.8792,1.8745,1.8843,1.8857,1.8913,1.8926,1.8915,1.892,1.9059,1.906,1.9061,1.9034,0,0,0,0,0,0,1.8452,1.8473,1.849,1.8561,1.8584,1.8671,1.8681,1.8694,1.8726,1.8729,1.8797,1.8808,1.8844,1.8905,1.8918,1.8933,1.8924,1.9058,1.906,1.9061,1.9034,1.9034,1.9034,0,0,0,0,0,1.8444,1.8477,1.8491,1.8508,1.8608,1.8671,1.8684,1.8726,1.8727,1.8745,1.8786,1.8806,1.8923,1.891,1.8926,1.8943,1.9058,1.9059,1.9061,1.9034,1.9034,1.9034,0,0,0,0,0,0,1.8405,1.8487,1.8504,1.8561,1.8609,1.8679,1.8703,1.8725,1.8773,1.8773,1.8822,1.8837,1.8888,1.8921,1.8905,1.8989,1.8991,1.8996,1.8966,1.8966,1.8966,1.8957,1.8928,0,0,0,0,0,1.8403,1.8449,1.8518,1.8561,1.8585,1.864,1.8669,1.8697,1.8748,1.8768,1.8814,1.8862,1.8909,1.894,1.8987,1.9039,1.9054,1.9059,1.9059,1.9058,1.9062,1.9092,1.9094,1.9067,1.9067,1.9067,0,0,1.8399,1.845,1.8476,1.8555,1.8595,1.864,1.8656,1.8703,1.8737,1.8775,1.8831,1.8865,1.8922,1.8976,1.9002,1.9005,1.9073,1.9061,1.906,1.9064,1.9094,1.9096,1.9098,1.9068,1.9068,1.9068,0,0,1.8416,1.8459,1.85,1.8541,1.8602,1.8639,1.8648,1.8716,1.8741,1.8798,1.8827,1.8867,1.8948,1.8988,1.9018,1.9049,1.9069,1.9063,1.9063,1.9092,1.9094,1.9096,1.9107,1.911,1.9067,1.9067,1.9067,0,1.8403,1.8473,1.8518,1.8564,1.8597,1.8635,1.8676,1.8713,1.8787,1.8808,1.8811,1.8914,1.8955,1.9018,1.9026,1.905,1.9062,1.9056,1.909,1.9093,1.9095,1.9106,1.911,1.9066,1.9066,1.9066,1.9066,0,1.8454,1.8502,1.8528,1.8599,1.8636,1.8679,1.8729,1.8761,1.8785,1.8821,1.8878,1.8928,1.8987,1.9004,1.9028,1.9071,1.9071,1.9081,1.9084,1.9096,1.9107,1.9112,1.9064,1.9064,1.9065,1.9065,0,0,1.8449,1.8545,1.8554,1.8586,1.8657,1.8695,1.8739,1.8797,1.8823,1.8872,1.891,1.8978,1.8989,1.9023,1.9052,1.9077,1.9098,1.9084,1.9086,1.9085,1.9148,1.9139,1.9144,1.9111,1.9112,1.9113,1.9143,0,1.8474,1.8557,1.8599,1.8663,1.8708,1.8744,1.8783,1.883,1.8865,1.8907,1.8944,1.8992,1.9002,1.9023,1.9049,1.909,1.9111,1.9088,1.9146,1.9148,1.9131,1.915,1.9141,1.9167,1.9148,1.9148,1.9149,0,1.8515,1.8565,1.8634,1.87,1.8721,1.8755,1.8811,1.8852,1.8905,1.8929,1.8967,1.8996,1.9043,1.9043,1.9108,1.9092,1.9118,1.9141,1.9143,1.915,1.9149,1.9156,1.9176,1.9179,1.9156,1.9156,1.9155,0,1.8504,1.8589,1.8641,1.8668,1.8746,1.8769,1.8803,1.8856,1.8889,1.8938,1.8959,1.9012,1.9041,1.9081,1.9123,1.9119,1.9184,1.9187,1.9204,1.9203,1.9216,1.9214,1.9239,1.9233,1.9233,1.9233,1.9232,0,1.8528,1.8569,1.8637,1.8669,1.8716,1.8763,1.8807,1.8843,1.889,1.8929,1.8964,1.8999,1.9052,1.9094,1.9127,1.9176,1.9188,1.9208,1.9216,1.9205,1.9202,1.9222,1.9222,1.9234,1.9233,1.9233,1.9233,0,1.8523,1.8571,1.8631,1.87,1.8718,1.8749,1.8808,1.884,1.8877,1.8926,1.894,1.8997,1.9048,1.9093,1.9161,1.9183,1.9232,1.9243,1.9214,1.9219,1.9233,1.9231,1.9271,1.9279,1.9267,1.9267,1.9267,0,1.8536,1.8568,1.8641,1.867,1.8704,1.875,1.8783,1.8831,1.8864,1.8928,1.8952,1.9006,1.9051,1.9131,1.9177,1.9229,1.9241,1.9251,1.9248,1.9236,1.924,1.9238,1.9241,1.9251,1.9251,1.9251,1.9251,0,1.8552,1.8574,1.8622,1.8677,1.8717,1.8762,1.8809,1.8831,1.8887,1.8922,1.8975,1.9011,1.908,1.9133,1.919,1.9223,1.9246,1.9251,1.9258,1.9246,1.9229,1.9238,1.9213,1.925,1.925,1.925,1.925,1.925,1.8556,1.8587,1.8643,1.8695,1.8735,1.8778,1.8812,1.8853,1.8898,1.8959,1.8984,1.9038,1.9091,1.917,1.9203,1.9245,1.9249,1.9259,1.9261,1.9263,1.9261,1.9222,1.9256,1.9256,1.9256,1.9256,1.9256,0,1.8574,1.8612,1.866,1.8725,1.8765,1.8784,1.8837,1.8869,1.8917,1.8964,1.9009,1.907,1.9121,1.9172,1.9226,1.925,1.9262,1.9262,1.9261,1.9268,1.9254,1.9243,1.9252,1.9252,1.9252,1.9252,1.9252,1.9252,1.8588,1.8641,1.867,1.8742,1.878,1.8834,1.8863,1.8902,1.8941,1.9008,1.9051,1.9084,1.9133,1.919,1.9238,1.9252,1.927,1.9267,1.9283,1.9269,1.9269,1.9269,1.9259,1.9271,1.9271,1.9294,1.9294,1.9295]}]]